Location: Pedholt
(56.0260°N, 10.2097°E)
Time: 05:48:00
(UTC+00:00)

Cosmos 2100 Rocket - Pass Details

Date: 14 July 2020
Orbit: 955 x 1002 km, 82.9° (Epoch: 14 August)

Event Time Altitude Azimuth Distance (km) Brightness Sun altitude
Exits shadow 00:45:06 12° 183° (S) 2,582 5.6 -10.5°
Maximum altitude 00:50:58 80° 99° (E) 998 4.1 -10.2°
Drops below altitude 10° 00:57:12 10° 13° (NNE) 2,722 7.9 -9.9°
Sets 00:59:42 0° 13° (NNE) 3,667 9.1 -9.8°
